Flag for U.S.A. Weather past 2 weeks in San Luis Obispo, California, U.S.A.

Now
62 °F

Partly sunny.


Feels Like: 62 °F
Forecast: 51 / 67 °F
Wind: 6 mph from Southwest

Location: San Luis Obispo County-Mc Chesney Field

Current Time: May 25, 2015 at 1:48:56 PM

Latest Report: May 25, 2015 at 12:56 PM


Visibility: 10 mi

Pressure: 30.00 "Hg

Humidity: 67%

Dew point: 51 °F

Location of San Luis ObispoLocation

Historic Weather in San Luis Obispo — Graph

°F

San Luis Obispo temperature yesterday

Maximum temperature yesterday: 68 °F (at 11:56 AM)
Minimum temperature yesterday: 46 °F (at 5:56 AM)
Average temperature yesterday: 57 °F

Past Weeks' High & Low Weather Summary

 TemperatureHumidityPressure
High70 °F (May 22, 1:56 PM)97% (May 15, 12:56 AM)30.12 "Hg (May 15, 12:56 AM)
Low43 °F (May 13, 3:56 AM)42% (May 16, 11:56 AM)29.82 "Hg (May 14, 5:56 PM)
Average57 °F72%29.99 "Hg
* Reported May 10 12:56 PM — May 25 12:56 PM, San Luis Obispo, Weather by CustomWeather, © 2015

Note: Actual official high and low records may vary slightly from our data, if they occured in-between our weather recording intervals... More about our weather records

Advertising

San Luis Obispo weather history for previous 24 hours

 ConditionsComfort  
Time TempWeatherWind HumidityBarometerVisibility
12:56 PM
Mon, May 25
62 °FOvercast.6 mph67%30.00 "Hg10 mi
11:56 AM59 °FOvercast.7 mph72%30.01 "Hg10 mi
11:03 AM58 °FOvercast.6 mph75%30.02 "Hg10 mi
10:56 AM58 °FOvercast.5 mph75%30.01 "Hg10 mi
9:56 AM56 °FOvercast.No wind81%30.00 "Hg10 mi
8:56 AM55 °FOvercast.3 mph83%30.00 "Hg10 mi
7:56 AM54 °FOvercast.5 mph86%29.99 "Hg10 mi
6:56 AM54 °FOvercast.No wind86%29.98 "Hg10 mi
5:56 AM53 °FOvercast.3 mph89%29.97 "Hg10 mi
4:56 AM54 °FLow clouds.3 mph86%29.96 "Hg10 mi
4:04 AM54 °FLow clouds.No wind86%29.96 "Hg10 mi
3:56 AM54 °FOvercast.No wind86%29.96 "Hg10 mi
2:56 AM54 °FLow clouds.3 mph90%29.97 "Hg9 mi
1:56 AM54 °FOvercast.6 mph86%29.98 "Hg10 mi
12:56 AM54 °FOvercast.5 mph86%29.99 "Hg10 mi
11:56 PM
Sun, May 24
55 °FOvercast.7 mph87%29.99 "Hg10 mi
10:56 PM55 °FOvercast.10 mph87%30.00 "Hg10 mi
9:56 PM54 °FPassing clouds.9 mph86%29.99 "Hg10 mi
8:56 PM54 °FPassing clouds.13 mph86%29.97 "Hg10 mi
7:56 PM55 °FPassing clouds.15 mph83%29.96 "Hg10 mi
6:56 PM58 °FScattered clouds.21 mph75%29.96 "Hg10 mi
5:56 PM62 °FPassing clouds.22 mph65%29.95 "Hg10 mi
4:56 PM68 °FSunny.18 mph53%29.95 "Hg10 mi
3:56 PM68 °FSunny.15 mph53%29.96 "Hg10 mi
2:56 PM67 °FSunny.18 mph55%29.99 "Hg10 mi
1:56 PM67 °FSunny.20 mph53%30.01 "Hg10 mi
Weather by CustomWeather, © 2015

See weather overviewHow to use our weather pages